COSMOS 2534 (758)

Last updated on July 6, 2021, 3:40 p.m. UTC

1 44299U 19030A   21186.42410578  .00000025  00000-0  00000-0 0  9997
2 44299  64.5099 253.8873 0013106 284.3255  78.9127  2.13102055 16414
UTC
Height (km)
Latitude
Longitude
Inclination
Orbital Period
UTC large
Height (km)
Speed (km/s)
/
Latitude / Longitude
Inclination (degrees)
Orbital Period (minutes)
Azimuth
Elevation
Range (km)
Doppler Factor
iOS Compass Heading
iOS Angle